Presure
219 211 222 225 185 184 187 186 184 163 184 154 171 192 182 191 174 187 190 164 154 180 163 184 180 242 249 154 254 278 183 260 274 261 250 258 232 151 181 178 117 127 139
211 179 186 185 181 192 181 189 182 175 177 188 163 175 175 185 184 190 176 175 185 169 182 181 195 193 213 236 170 237 257 258 251 215 239 238 222 221 186 212 200 179 204
188 170 190 179 160 176 183 172 176 182 175 173 175 181 179 189 176 163 174 184 171 171 176 205 191 198 243 185 224 236 133 243 215 226 206 233 225 211 216 175 196 183 186
165 182 182 188 184 188 180 181 172 173 169 167 171 185 176 170 158 169 170 166 173 203 203 210 186 234 208 204 194 160 235 230 238 192 240 226 223 218 217 221 210 171 198
173 187 178 167 184 184 155 164 168 158 159 160 168 169 167 164 143 162 170 205 192 180 202 206 237 247 242 204 186 224 255 230 230 239 194 196 220 220 211 219 204 215 198
182 169 158 187 175 165 163 149 157 162 163 161 150 160 170 165 201 189 182 153 170 159 194 209 227 197 202 199 259 217 214 261 245 207 231 193 175 222 211 216 201 209 208
177 156 156 171 147 173 157 160 155 170 141 159 156 147 183 164 131 197 169 162 175 181 198 239 239 215 221 236 250 213 247 251 272 244 255 224 223 195 209 219 212 223 205
152 161 156 158 161 134 169 126 147 141 141 191 136 188 212 121 132 202 135 204 219 233 139 203 161 250 250 231 193 207 216 271 250 272 240 250 206 250 220 224 220 229 217
138 155 160 127 155 160 128 166 170 161 203 124 203 139 194 200 134 200 206 201 226 201 145 211 234 183 241 186 243 207 270 280 174 254 274 217 243 184 247 189 202 228 227
152 191 125 179 153 141 124 207 130 178 197 130 164 157 230 217 175 215 215 252 199 134 206 134 135 194 230 257 199 256 265 280 243 254 170 269 276 254 229 251 201 230 248
138 180 165 169 191 168 183 115 181 193 120 231 107 140 249 207 136 237 136 229 231 236 165 132 133 250 238 249 257 208 265 264 255 273 258 269 264 278 267 203 179 217 235
192 186 172 201 184 189 193 176 123 249 180 235 196 114 214 227 184 136 111 249 252 239 255 230 237 254 248 145 217 247 298 263 279 242 158 214 191 174 250 266 270 244 235
175 177 215 217 195 242 236 237 166 149 131 241 241 126 228 245 234 234 102 219 250 240 253 241 228 201 144 264 305 150 183 139 241 256 233 297 241 288 263 216 283 270 246
207 214 230 208 161 233 243 236 224 231 235 232 237 238 241 242 246 249 233 254 262 231 238 251 290 328 214 226 225 196 124 244 229 275 251 233 150 199 227 267 267 273 270
249 240 217 222 204 251 181 215 234 228 243 259 230 266 265 203 267 245 212 278 241 302 261 260 230 291 307 277 167 188 348 328 282 135 328 215 269 340 248 205 275 254 267
228 170 231 231 247 229 233 243 244 255 261 238 259 265 230 237 194 307 309 232 244 313 264 317 322 325 303 177 330 332 321 336 298 313 286 306 337 345 167 296 186 284 203
209 179 199 208 202 220 221 210 225 228 222 252 256 266 296 315 320 329 324 302 310 345 342 331 263 333 334 330 334 330 328 231 302 280 280 360 290 261 243 289 312 268 283
226 221 213 224 227 220 218 226 242 254 265 262 300 306 325 335 349 342 352 351 339 348 360 368 364 359 360 350 358 345 333 289 319 307 276 277 278 269 285 343 337 279 318
246 221 248 225 226 232 229 229 268 265 298 304 352 351 346 355 269 320 373 396 390 391 393 399 396 391 394 396 403 410 399 371 299 332 268 220 267 266 264 258 301 318 304
247 238 243 216 251 258 263 261 294 313 359 369 364 372 365 276 292 313 392 407 397 379 406 414 404 396 393 377 341 381 398 136 410 414 385 337 329 245 277 340 261 338 287
245 253 248 251 266 275 288 320 345 281 361 365 387 408 396 413 454 454 457 453 450 445 453 453 464 464 460 473 475 478 480 461 386 390 391 407 383 313 309 311 273 294 321
256 258 265 277 290 330 350 285 351 378 395 467 484 471 457 452 445 438 435 429 420 424 422 419 422 438 457 459 461 459 460 468 477 489 487 380 392 416 372 311 264 255 313
274 279 290 267 356 375 324 403 499 385 519 522 516 513 506 480 445 430 424 419 412 412 412 408 408 415 418 440 453 453 452 455 463 473 484 484 479 393 405 411 274 286 273
301 291 351 87 331 392 382 488 482 485 489 529 524 512 501 495 488 477 457 441 427 408 402 402 407 417 405 401 406 429 169 455 461 462 478 487 488 490 468 404 407 357 323
373 352 248 366 423 456 440 428 423 429 424 421 416 323 461 465 483 495 284 340 451 430 413 409 412 427 421 396 402 409 414 431 444 455 466 465 474 496 480 495 439 407 358
314 394 453 447 433 420 412 417 418 414 415 430 443 282 83 409 482 461 448 345 498 471 418 323 207 406 299 406 407 430 430 418 416 218 439 440 446 460 502 481 492 467 401
Wind_Speed
48 42 38 34 41 41 43 45 45 44 46 44 49 52 53 54 52 56 55 42 35 57 42 58 56 51 44 34 30 17 40 29 43 43 46 54 60 58 62 45 47 48 56
46 43 42 43 45 42 48 48 48 49 50 52 49 52 53 58 59 58 58 54 62 53 62 59 59 56 39 43 32 26 18 37 38 26 53 59 59 70 53 67 63 57 54
46 48 45 51 48 52 51 50 50 50 51 51 55 56 58 60 57 47 59 63 56 58 60 60 56 51 30 32 30 28 48 39 31 44 37 62 61 59 74 63 68 57 57
50 48 51 50 53 54 52 52 53 53 54 55 59 64 61 57 46 60 61 55 62 64 63 63 55 50 52 42 51 40 39 41 52 40 63 63 67 70 71 82 78 62 78
51 52 53 53 56 58 51 55 57 54 54 54 61 63 62 58 40 56 65 72 70 63 68 66 64 63 53 63 53 41 48 48 57 69 46 49 70 72 73 82 71 87 73
52 53 54 59 60 58 60 52 58 60 60 60 51 59 70 64 75 66 64 46 56 56 71 70 68 63 67 63 52 59 49 54 59 56 71 56 51 80 74 83 77 84 85
57 51 51 61 47 65 56 62 58 68 49 63 60 52 78 56 43 79 56 58 63 64 76 82 71 72 67 74 56 62 55 53 60 67 76 69 72 58 72 91 91 97 86
52 57 53 57 62 49 70 46 57 54 59 78 54 82 85 47 46 84 47 84 83 87 59 79 50 78 80 60 67 72 70 52 62 65 75 78 67 99 86 98 101 109 102
49 60 62 53 63 68 54 74 71 69 87 52 87 57 82 89 54 89 89 88 94 82 52 78 76 66 82 65 68 65 70 70 69 70 68 71 82 64 94 63 66 112 113
61 79 55 73 64 62 59 90 60 81 88 57 73 71 102 97 78 92 91 105 93 58 84 61 62 80 77 83 62 74 78 81 72 72 74 76 82 89 80 88 68 92 113
55 80 72 76 85 79 89 63 88 92 58 106 51 66 108 98 62 109 64 101 96 98 74 65 66 94 85 83 85 71 85 80 74 70 75 72 81 85 90 74 62 77 80
89 90 87 97 94 94 93 93 70 105 98 109 92 56 102 108 92 69 52 118 118 105 115 91 102 104 89 58 86 85 94 85 85 85 66 72 69 75 80 91 89 91 84
91 95 104 106 100 105 108 108 85 77 66 113 116 69 114 120 114 114 44 108 120 110 122 100 92 81 59 103 100 54 72 58 82 74 84 76 86 79 90 73 88 91 91
102 101 108 105 90 109 107 111 107 111 117 117 124 126 127 127 128 125 112 122 126 108 104 111 112 108 99 88 69 77 49 73 63 82 93 68 57 73 69 92 90 90 90
100 105 107 103 99 112 96 110 121 117 120 123 114 121 126 100 132 122 112 130 116 125 121 121 87 92 99 91 78 71 82 82 80 50 74 76 75 77 81 78 93 87 88
113 104 117 117 119 109 124 123 126 126 128 132 134 132 118 122 112 135 133 106 111 125 128 113 110 106 101 59 91 86 83 81 77 76 74 74 79 81 79 84 67 96 71
106 107 107 107 104 120 122 114 130 132 124 140 140 138 136 140 136 128 126 125 123 113 107 109 103 100 97 98 94 90 86 69 78 75 75 80 75 70 67 89 83 94 95
121 125 119 125 127 129 126 134 139 139 137 138 145 145 143 134 126 124 119 114 114 110 105 102 98 97 94 95 94 94 92 83 86 80 78 79 78 85 79 80 83 96 82
124 127 126 132 134 139 140 141 137 139 145 146 131 126 127 120 113 116 110 104 101 98 94 91 88 87 83 82 80 81 83 87 89 88 82 74 84 88 86 83 80 85 85
128 136 135 122 136 135 138 139 147 147 133 125 123 119 115 110 110 106 99 93 93 90 85 80 80 81 79 80 84 79 77 70 76 76 87 91 88 94 89 86 89 82 90
127 127 133 133 136 138 143 144 133 121 120 118 116 109 106 98 81 77 69 65 64 64 61 60 57 56 56 52 53 54 59 64 74 74 75 76 86 90 86 84 74 83 86
130 133 134 140 142 137 133 127 123 120 114 88 78 77 77 75 73 70 66 63 63 61 58 58 55 52 51 52 51 53 56 56 57 56 56 76 77 76 83 87 89 87 83
141 145 146 121 128 122 121 112 76 103 66 61 63 63 61 62 67 69 67 63 61 59 55 54 54 50 48 48 50 51 52 54 54 55 55 56 59 75 74 76 87 85 87
146 126 126 27 121 106 104 63 59 57 57 53 53 53 54 54 53 53 56 60 59 57 53 52 50 49 48 47 46 48 50 51 51 51 49 49 50 53 59 73 75 90 90
119 116 81 110 84 61 62 63 62 59 61 58 55 38 46 45 47 47 35 42 50 52 51 50 50 50 43 43 46 49 49 48 48 46 42 42 42 41 48 49 64 73 88
124 98 64 60 58 59 60 55 53 56 55 49 45 39 23 46 41 41 37 37 40 40 42 39 37 42 37 38 39 41 42 42 40 26 36 38 40 40 39 44 43 53 71
Wind_Direction
291 286 284 280 271 275 276 277 280 284 285 283 287 284 286 285 285 286 285 292 284 295 299 296 298 318 335 267 318 319 297 227 215 218 224 211 215 248 232 242 247 247 250
285 281 280 279 280 276 281 277 279 280 284 282 284 287 286 282 282 282 289 289 289 295 293 294 294 296 308 314 287 300 245 217 219 245 212 212 228 225 243 239 234 240 243
278 279 277 278 282 282 281 280 281 282 284 285 286 286 285 283 290 292 291 287 293 294 293 289 294 292 308 272 285 276 265 216 255 226 241 218 224 242 233 242 242 245 248
277 278 277 276 278 279 282 282 284 285 287 288 288 284 285 291 293 292 293 294 291 288 288 289 290 294 292 282 289 281 259 257 229 276 217 223 225 235 233 230 244 238 251
279 276 281 281 282 280 286 284 283 283 285 288 287 289 291 292 274 293 290 288 286 287 287 286 296 299 295 287 275 269 244 251 242 226 269 255 234 240 242 236 247 238 239
278 277 277 276 277 282 282 283 284 286 287 286 287 290 288 289 286 288 285 285 280 278 285 282 291 288 284 287 293 273 271 248 243 259 236 264 273 235 243 242 249 245 248
277 279 282 278 286 278 280 283 285 283 282 288 288 286 282 280 266 284 280 280 283 280 284 297 293 284 283 296 285 275 271 250 245 242 240 245 241 259 242 240 247 238 249
278 279 283 283 282 287 281 282 288 282 277 282 280 281 284 272 270 281 265 281 283 294 274 281 275 295 300 280 283 278 272 270 251 243 244 240 260 234 240 236 240 235 244
282 279 279 281 285 284 286 285 286 284 285 278 284 277 284 284 274 282 283 283 289 285 269 290 284 281 296 277 282 285 288 287 272 250 245 255 243 262 241 261 254 240 240
279 283 277 286 286 282 279 287 274 284 285 272 284 287 291 288 282 289 290 292 282 266 288 269 271 278 276 289 273 285 284 281 261 253 271 247 244 244 247 244 255 245 242
277 287 282 282 284 281 286 284 287 286 283 291 279 282 290 289 280 291 271 289 286 288 279 271 272 289 282 283 285 278 284 270 261 264 251 251 250 246 243 250 260 250 250
285 286 292 285 288 285 285 290 272 290 291 290 288 275 290 288 291 279 277 290 289 288 291 280 283 286 285 275 282 280 280 269 274 262 270 257 262 266 248 242 243 246 248
286 287 288 288 284 289 290 290 293 276 284 289 289 278 287 287 287 287 278 289 288 286 287 284 282 280 274 287 278 271 276 279 267 270 257 262 260 248 246 253 243 242 247
286 289 289 290 294 290 289 290 290 291 290 289 289 289 289 289 288 287 285 286 286 285 282 287 287 286 280 276 275 279 266 273 269 260 256 262 274 263 251 246 244 243 242
288 287 287 290 289 291 292 291 291 291 288 288 287 291 290 291 290 288 279 289 288 289 288 288 285 282 283 281 272 274 269 264 261 256 261 270 257 251 251 258 244 246 243
288 285 291 292 291 288 292 290 290 289 289 292 290 291 292 289 288 293 292 281 285 290 288 287 286 283 281 276 275 271 268 264 263 261 260 258 251 249 270 242 261 241 254
290 291 294 293 288 294 293 292 294 293 293 293 291 292 296 295 294 292 290 289 289 288 286 285 278 281 279 276 274 270 265 269 260 256 258 251 251 256 257 242 241 246 241
290 291 290 292 292 294 295 295 293 292 292 292 297 296 295 293 292 291 290 288 287 286 284 282 281 279 277 274 272 268 265 264 258 253 252 250 250 246 245 245 241 244 237
288 292 289 291 291 290 292 293 295 294 297 296 295 294 293 292 291 291 290 288 287 286 285 284 281 280 277 275 272 269 266 261 256 254 248 251 244 244 246 248 244 238 237
290 289 290 293 292 294 294 295 298 296 297 295 294 294 293 289 290 289 290 289 287 286 284 282 280 278 276 274 271 269 266 262 260 257 253 249 247 251 250 241 245 239 239
290 293 290 291 294 295 297 298 297 294 296 296 295 294 292 292 291 291 290 289 287 286 285 284 281 280 280 277 273 272 272 268 258 255 252 252 247 244 243 242 240 236 239
295 297 299 300 300 299 299 297 297 297 296 295 294 292 292 292 291 290 289 286 284 284 284 283 283 283 280 277 275 273 272 272 271 270 265 249 247 246 244 240 239 244 235
301 301 299 296 299 298 299 298 300 297 299 298 296 294 290 286 286 286 285 283 282 282 281 281 281 281 277 276 276 273 271 270 269 269 266 261 258 246 245 244 236 236 237
300 298 299 289 302 300 299 305 305 303 301 301 297 295 294 294 290 283 278 279 279 279 280 278 278 278 274 274 271 272 262 273 273 269 269 265 262 259 252 240 241 234 231
298 300 301 301 302 305 303 303 303 305 305 306 305 301 305 302 298 292 283 277 278 279 280 281 283 284 277 270 269 267 266 267 268 269 268 263 262 259 255 252 241 238 231
303 300 305 305 305 304 304 309 310 308 309 315 314 300 271 301 300 298 297 287 286 282 283 284 286 279 279 276 272 273 271 268 266 275 263 259 257 255 250 247 242 236 234